HK4LRM-13 Weather Reports


Display with metric or nautical units.
time (UTC)temp
F
wind
direction
speed
MPH
gust
MPH
rain 1hr
in
rain 24hr
in
rain mn
in
humidity
%
barometer
mb
20260507165556 79 0 5.0 0.0 0.00 0.00 0.00 50 1012.0
20260507164656 79 0 5.0 0.0 0.00 0.00 0.00 50 1012.0
20260507163755 77 0 5.0 0.0 0.00 0.00 0.00 55 1013.0
20260507162854 77 0 5.0 0.0 0.00 0.00 0.00 55 1013.0
20260507161953 76 0 5.0 0.0 0.00 0.00 0.00 56 1013.0
20260507161053 77 0 5.0 0.0 0.00 0.00 0.00 56 1013.0
20260507160152 77 0 5.0 0.0 0.00 0.00 0.00 56 1013.0
20260507155252 77 0 5.0 0.0 0.00 0.00 0.00 55 1013.0
20260507154351 78 0 5.0 0.0 0.00 0.00 0.00 54 1013.0
20260507153448 74 0 5.0 0.0 0.00 0.00 0.00 69 1013.0
20260507152547 75 0 5.0 0.0 0.00 0.00 0.00 70 1014.0
20260507151644 75 0 5.0 0.0 0.00 0.00 0.00 70 1014.0
20260507150743 75 0 0.0 0.0 0.00 0.00 0.00 70 1014.0
20260507145843 75 0 0.0 0.0 0.00 0.00 0.00 70 1014.0
20260507144942 75 0 0.0 0.0 0.00 0.00 0.00 70 1014.0
20260507144040 73 140 3.0 0.0 0.00 0.00 0.00 68 1015.0
20260507143139 72 140 3.0 0.0 0.00 0.00 0.00 71 1015.0
20260507142237 72 140 3.0 0.0 0.00 0.00 0.00 71 1015.0
20260507141336 71 140 3.0 0.0 0.00 0.00 0.00 74 1015.0
20260507140433 70 0 1.0 0.0 0.00 0.00 0.00 75 1015.0
20260507135531 70 0 1.0 0.0 0.00 0.00 0.00 75 1015.0
20260507134631 70 0 1.0 0.0 0.00 0.00 0.00 75 1015.0
20260507133730 71 0 2.0 0.0 0.00 0.00 0.00 75 1015.0
20260507132829 63 0 1.0 0.0 0.00 0.00 0.00 99 1016.0
20260507131929 63 0 1.0 0.0 0.00 0.00 0.00 10 1016.0
20260507131028 64 0 1.0 0.0 0.00 0.00 0.00 10 1016.0
20260507130127 62 200 3.0 0.0 0.00 0.00 0.00 10 1016.0
20260507125227 61 360 11.0 0.0 0.00 0.00 0.00 97 1016.0
20260507124326 61 360 11.0 0.0 0.00 0.00 0.00 97 1016.0
20260507123425 61 360 11.0 0.0 0.00 0.00 0.00 97 1016.0
20260507122523 61 360 11.0 0.0 0.00 0.00 0.00 97 1016.0
20260507121622 61 360 11.0 0.0 0.00 0.00 0.00 97 1016.0
20260507120721 61 360 11.0 0.0 0.00 0.00 0.00 97 1016.0
20260507115820 61 360 11.0 0.0 0.00 0.00 0.00 97 1016.0
20260507114920 61 360 11.0 0.0 0.00 0.00 0.00 97 1016.0
20260507114019 61 360 11.0 0.0 0.00 0.00 0.00 97 1016.0
20260507113118 61 360 11.0 0.0 0.00 0.00 0.00 97 1016.0
20260507112218 61 360 11.0 0.0 0.00 0.00 0.00 97 1016.0
20260507111317 61 360 11.0 0.0 0.00 0.00 0.00 97 1016.0
20260507110417 61 360 11.0 0.0 0.00 0.00 0.00 97 1016.0
20260507105515 61 360 11.0 0.0 0.00 0.00 0.00 97 1016.0
20260507104614 61 360 11.0 0.0 0.00 0.00 0.00 97 1016.0
20260507103714 61 360 11.0 0.0 0.00 0.00 0.00 97 1016.0
20260507102813 61 360 11.0 0.0 0.00 0.00 0.00 97 1016.0
20260507101911 61 360 11.0 0.0 0.00 0.00 0.00 97 1016.0
20260507101011 61 360 11.0 0.0 0.00 0.00 0.00 97 1016.0
20260507100109 61 360 11.0 0.0 0.00 0.00 0.00 97 1016.0
20260507095209 61 360 11.0 0.0 0.00 0.00 0.00 97 1016.0
20260507094307 61 360 11.0 0.0 0.00 0.00 0.00 97 1016.0
20260507093407 61 360 11.0 0.0 0.00 0.00 0.00 97 1016.0
20260507092506 61 360 11.0 0.0 0.00 0.00 0.00 97 1015.0
20260507091604 61 360 11.0 0.0 0.00 0.00 0.00 97 1015.0
20260507090704 61 360 11.0 0.0 0.00 0.00 0.00 97 1015.0
20260507085804 61 360 11.0 0.0 0.00 0.00 0.00 96 1015.0
20260507084903 61 360 11.0 0.0 0.00 0.00 0.00 96 1015.0
20260507084003 61 360 11.0 0.0 0.00 0.00 0.00 96 1015.0
20260507083102 62 360 11.0 0.0 0.00 0.00 0.00 96 1015.0
20260507082202 62 360 11.0 0.0 0.00 0.00 0.00 96 1015.0
20260507081301 62 360 11.0 0.0 0.00 0.00 0.00 95 1015.0
20260507080400 62 360 11.0 0.0 0.00 0.00 0.00 94 1015.0
20260507075500 62 360 11.0 0.0 0.00 0.00 0.00 94 1015.0
20260507074559 62 360 11.0 0.0 0.00 0.00 0.00 93 1015.0
20260507073658 63 360 11.0 0.0 0.00 0.00 0.00 92 1016.0
20260507072755 63 360 11.0 0.0 0.00 0.00 0.00 92 1016.0
20260507071854 63 360 11.0 0.0 0.00 0.00 0.00 90 1016.0
20260507070953 63 360 11.0 0.0 0.00 0.00 0.00 90 1016.0
20260507070052 63 360 11.0 0.0 0.00 0.00 0.00 89 1016.0
20260507065137 63 360 11.0 0.0 0.00 0.00 0.00 89 1016.0
20260507064236 64 360 11.0 0.0 0.00 0.00 0.00 88 1016.0
20260507063334 64 360 11.0 0.0 0.00 0.00 0.00 88 1016.0
20260507062434 64 360 11.0 0.0 0.00 0.00 0.00 88 1016.0
20260507061533 64 360 11.0 0.0 0.00 0.00 0.00 88 1016.0
20260507060632 64 360 11.0 0.0 0.00 0.00 0.00 88 1016.0
20260507055729 64 360 11.0 0.0 0.00 0.00 0.00 88 1016.0
20260507054828 64 360 11.0 0.0 0.00 0.00 0.00 88 1016.0
20260507053927 64 360 11.0 0.0 0.00 0.00 0.00 88 1016.0
20260507053026 64 360 11.0 0.0 0.00 0.00 0.00 87 1017.0
20260507052123 64 360 11.0 0.0 0.00 0.00 0.00 86 1017.0
20260507051223 64 360 11.0 0.0 0.00 0.00 0.00 86 1017.0
20260507050321 64 360 11.0 0.0 0.00 0.00 0.00 85 1017.0
20260507045416 64 360 11.0 0.0 0.00 0.00 0.00 84 1017.0
20260507044515 64 360 11.0 0.0 0.00 0.00 0.00 83 1017.0
20260507043613 64 360 11.0 0.0 0.00 0.00 0.00 83 1017.0
20260507042713 64 360 11.0 0.0 0.00 0.00 0.00 81 1017.0
20260507041811 64 360 11.0 0.0 0.00 0.00 0.00 81 1017.0
20260507040911 64 360 11.0 0.0 0.00 0.00 0.00 79 1017.0
20260507040008 64 360 11.0 0.0 0.00 0.00 0.00 79 1017.0
20260507035108 64 360 11.0 0.0 0.00 0.00 0.00 79 1017.0
20260507034207 64 360 11.0 0.0 0.00 0.00 0.00 79 1017.0
20260507033306 64 360 11.0 0.0 0.00 0.00 0.00 79 1017.0
20260507032406 64 360 11.0 0.0 0.00 0.00 0.00 79 1017.0
20260507031505 64 360 11.0 0.0 0.00 0.00 0.00 79 1017.0
20260507030605 64 360 11.0 0.0 0.00 0.00 0.00 79 1017.0
20260507025704 64 360 11.0 0.0 0.00 0.00 0.00 78 1017.0
20260507024804 65 360 11.0 0.0 0.00 0.00 0.00 77 1017.0
20260507023902 66 360 11.0 0.0 0.00 0.00 0.00 76 1016.0
20260507023001 66 360 11.0 0.0 0.00 0.00 0.00 76 1016.0
20260507022056 66 360 11.0 0.0 0.00 0.00 0.00 75 1016.0
20260507021155 66 360 11.0 0.0 0.00 0.00 0.00 72 1016.0
20260507020254 66 360 11.0 0.0 0.00 0.00 0.00 70 1016.0
20260507015354 66 360 11.0 0.0 0.00 0.00 0.00 67 1016.0
20260507014453 66 360 11.0 0.0 0.00 0.00 0.00 65 1016.0
20260507013551 66 360 11.0 0.0 0.00 0.00 0.00 61 1015.0
20260507012651 66 360 11.0 0.0 0.00 0.00 0.00 61 1015.0
20260507011750 66 360 11.0 0.0 0.00 0.00 0.00 57 1015.0
20260507010850 66 360 11.0 0.0 0.00 0.00 0.00 50 1015.0
20260507005944 66 360 11.0 0.0 0.00 0.00 0.00 50 1015.0
20260507005044 67 360 11.0 0.0 0.00 0.00 0.00 48 1014.0
20260507004142 67 360 11.0 0.0 0.00 0.00 0.00 48 1014.0
20260507003242 67 360 11.0 0.0 0.00 0.00 0.00 46 1014.0
20260507002341 68 360 11.0 0.0 0.00 0.00 0.00 46 1013.0
20260507001440 68 360 11.0 0.0 0.00 0.00 0.00 46 1013.0
20260507000537 68 360 11.0 0.0 0.00 0.00 0.00 46 1013.0
20260506235635 69 360 11.0 0.0 0.00 0.00 0.00 46 1013.0
20260506234734 70 360 11.0 0.0 0.00 0.00 0.00 46 1013.0
20260506233834 70 360 11.0 0.0 0.00 0.00 0.00 46 1013.0
20260506232933 70 360 11.0 0.0 0.00 0.00 0.00 46 1012.0
20260506232032 71 360 11.0 0.0 0.00 0.00 0.00 46 1012.0
20260506231131 71 360 11.0 0.0 0.00 0.00 0.00 46 1012.0
20260506230228 72 360 11.0 0.0 0.00 0.00 0.00 46 1012.0
20260506225327 73 360 11.0 0.0 0.00 0.00 0.00 46 1012.0
20260506224426 74 360 11.0 0.0 0.00 0.00 0.00 46 1011.0
20260506223526 74 360 11.0 0.0 0.00 0.00 0.00 46 1011.0
20260506222625 75 360 11.0 0.0 0.00 0.00 0.00 46 1010.0
20260506221724 76 360 11.0 0.0 0.00 0.00 0.00 46 1010.0
20260506220823 76 360 11.0 0.0 0.00 0.00 0.00 46 1010.0
20260506215922 77 360 11.0 0.0 0.00 0.00 0.00 46 1010.0
20260506215022 78 360 11.0 0.0 0.00 0.00 0.00 46 1010.0
20260506214121 78 360 11.0 0.0 0.00 0.00 0.00 46 1010.0
20260506213221 79 360 11.0 0.0 0.00 0.00 0.00 46 1009.0
20260506212319 80 360 11.0 0.0 0.00 0.00 0.00 46 1009.0
20260506211416 80 360 11.0 0.0 0.00 0.00 0.00 46 1009.0
20260506210506 81 360 11.0 0.0 0.00 0.00 0.00 46 1009.0
20260506205604 81 360 11.0 0.0 0.00 0.00 0.00 46 1009.0
20260506204703 81 360 11.0 0.0 0.00 0.00 0.00 47 1009.0
20260506203803 81 360 11.0 0.0 0.00 0.00 0.00 47 1009.0
20260506202901 79 360 11.0 0.0 0.00 0.00 0.00 50 1009.0
20260506202000 78 360 11.0 0.0 0.00 0.00 0.00 52 1009.0
20260506201059 77 0 6.0 0.0 0.00 0.00 0.00 56 1009.0
20260506200158 77 0 6.0 0.0 0.00 0.00 0.00 56 1009.0
20260506195257 77 0 6.0 0.0 0.00 0.00 0.00 56 1009.0
20260506194357 77 0 6.0 0.0 0.00 0.00 0.00 56 1009.0
20260506193456 77 0 6.0 0.0 0.00 0.00 0.00 56 1009.0
20260506192556 77 0 6.0 0.0 0.00 0.00 0.00 56 1010.0
20260506191655 77 0 6.0 0.0 0.00 0.00 0.00 57 1010.0
20260506190752 77 0 6.0 0.0 0.00 0.00 0.00 57 1010.0
20260506185850 77 0 5.0 0.0 0.00 0.00 0.00 57 1010.0
20260506184949 78 0 5.0 0.0 0.00 0.00 0.00 58 1010.0
20260506184047 79 0 5.0 0.0 0.00 0.00 0.00 58 1010.0
20260506183146 76 0 5.0 0.0 0.00 0.00 0.00 62 1011.0
20260506182246 76 0 5.0 0.0 0.00 0.00 0.00 62 1011.0
20260506181345 76 0 5.0 0.0 0.00 0.00 0.00 63 1011.0
20260506180445 75 160 5.0 0.0 0.00 0.00 0.00 65 1011.0
20260506175544 76 160 5.0 0.0 0.00 0.00 0.00 65 1011.0
20260506174644 74 160 5.0 0.0 0.00 0.00 0.00 65 1011.0
20260506173743 74 160 5.0 0.0 0.00 0.00 0.00 65 1011.0
20260506172843 75 160 5.0 0.0 0.00 0.00 0.00 65 1012.0
20260506171941 75 160 5.0 0.0 0.00 0.00 0.00 65 1013.0
20260506171039 73 160 6.0 0.0 0.00 0.00 0.00 69 1013.0